Location: Gettysburg
(39.8310°N, 77.2310°W)
Time: 01:32:49
(UTC-04:00)

ATLAS 2AS CENTAUR R/B - Visible Passes

Search period start: 18 April 2014 00:00
Search period end: 28 April 2014 00:00
Orbit: 926 x 1287 km, 63.7° (Epoch: 02 April)

Date Brightness Start Highest point End Pass type
(mag) Time Alt. Az. Time Alt. Az. Time Alt. Az.
18 Apr 5.6 01:02:01 10° NNW 01:05:50 14° NNE 01:09:40 10° NE visible
18 Apr 4.4 02:52:17 10° NNW 02:59:32 35° NE 03:06:41 10° ESE visible
18 Apr 3.0 04:43:08 10° NW 04:51:04 64° WSW 04:58:44 10° SSE visible
18 Apr 4.3 20:24:59 10° WSW 20:31:40 41° NW 20:38:54 10° NNE visible
18 Apr 5.6 22:21:02 10° NW 22:25:04 15° NNW 22:29:13 10° NNE visible
19 Apr 5.7 00:17:15 10° NNW 00:20:01 12° N 00:22:48 10° NNE visible
19 Apr 4.9 02:07:46 10° NNW 02:14:16 26° NE 02:20:43 10° E visible
19 Apr 3.0 03:58:18 10° NNW 04:06:24 88° ENE 04:14:15 10° SSE visible
19 Apr 4.1 05:51:08 10° WNW 05:56:26 20° WSW 06:01:37 10° SSW visible
19 Apr 5.4 21:34:27 10° WNW 21:39:26 19° NNW 21:44:40 10° NNE visible
19 Apr 5.7 23:31:58 10° NNW 23:34:09 11° N 23:36:20 10° NNE visible
20 Apr 5.2 01:23:15 10° NNW 01:28:49 20° NNE 01:34:23 10° ENE visible
20 Apr 3.4 03:13:35 10° NNW 03:21:34 62° NE 03:29:20 10° SE visible
20 Apr 3.6 05:05:20 10° NW 05:12:09 32° WSW 05:18:47 10° SSW visible
20 Apr 5.2 20:48:11 10° W 20:53:59 25° NW 21:00:08 10° NNE visible
20 Apr 5.7 22:45:46 10° NNW 22:48:16 12° N 22:50:49 10° NNE visible
21 Apr 5.4 00:38:43 10° NNW 00:43:13 16° NNE 00:47:43 10° ENE visible
21 Apr 4.0 02:28:59 10° NNW 02:36:34 43° NE 02:44:01 10° ESE visible
21 Apr 3.2 04:20:05 10° NW 04:27:44 49° WSW 04:35:08 10° S visible
21 Apr 5.6 21:59:02 10° NW 22:02:27 13° NNW 22:05:57 10° NNE visible
21 Apr 5.5 23:54:06 10° NNW 23:57:28 13° NNE 00:00:51 10° NE visible
22 Apr 4.5 01:44:25 10° NNW 01:51:24 31° NE 01:58:18 10° E visible
22 Apr 2.9 03:35:08 10° NW 03:43:10 75° WSW 03:50:56 10° SSE visible
22 Apr 4.4 05:29:11 10° WNW 05:32:52 14° WSW 05:36:31 10° SW visible
22 Apr 5.4 21:12:18 10° WNW 21:16:45 16° NNW 21:21:20 10° NNE visible
22 Apr 5.6 23:09:11 10° NNW 23:11:37 12° N 23:14:05 10° NNE visible
23 Apr 4.9 00:59:54 10° NNW 01:06:03 23° NNE 01:12:11 10° E visible
23 Apr 3.1 02:50:21 10° NNW 02:58:26 77° NE 03:02:48 30° SE visible
23 Apr 3.9 04:42:40 10° WNW 04:48:41 24° WSW 04:50:00 23° WSW visible
23 Apr 5.3 20:25:50 10° WNW 20:31:11 21° NNW 20:36:48 10° NNE visible
23 Apr 5.6 22:23:32 10° NNW 22:25:44 11° N 22:27:58 10° NNE visible
24 Apr 5.2 00:15:23 10° NNW 00:20:32 18° NNE 00:25:42 10° ENE visible
24 Apr 3.6 02:05:41 10° NNW 02:13:32 53° NE 02:17:06 32° ESE visible
24 Apr 3.4 03:57:08 10° NW 04:04:21 38° WSW 04:04:24 38° WSW visible
24 Apr 5.5 21:37:02 10° NNW 21:39:53 12° N 21:42:46 10° NNE visible
24 Apr 5.4 23:30:50 10° NNW 23:34:52 14° NNE 23:38:56 10° NE visible
25 Apr 4.2 01:21:06 10° NNW 01:28:28 38° NE 01:32:18 25° E visible
25 Apr 3.0 03:12:02 10° NW 03:19:38 58° WSW 03:19:38 58° WSW visible
25 Apr 5.4 20:50:16 10° NW 20:54:06 14° NNW 20:58:02 10° NNE visible
25 Apr 5.4 22:46:07 10° NNW 22:49:05 12° N 22:52:04 10° NNE visible
26 Apr 4.6 00:36:33 10° NNW 00:43:13 28° NE 00:47:54 17° E visible
26 Apr 2.9 02:27:09 10° NW 02:35:14 86° WSW 02:35:16 86° SW visible
26 Apr 4.6 04:20:19 10° WNW 04:22:38 15° W 04:22:38 15° W visible
26 Apr 5.5 22:00:59 10° NNW 22:03:13 11° N 22:05:28 10° NNE visible
26 Apr 5.0 23:52:03 10° NNW 23:57:49 21° NNE 00:03:34 10° ENE visible
27 Apr 3.2 01:42:25 10° NNW 01:50:26 66° NE 01:51:07 64° E visible
27 Apr 4.2 03:34:20 10° NW 03:38:30 25° W 03:38:30 25° W visible
27 Apr 5.5 21:14:57 10° NNW 21:17:20 11° N 21:19:44 10° NNE visible
27 Apr 5.2 23:07:31 10° NNW 23:12:14 16° NNE 23:16:58 10° ENE visible
